User: anonymous
Location: Brno
(49.2000°N, 16.6330°E)
Time: 14:11:23
(UTC+02:00)
Language:

Iridium 2 - Orbit

View from above orbital plane
View from above orbital plane
View from above satellite
View from above satellite

Ground track
Ground track

The orbit data is extracted from the following two-line orbital elements,

1 25527U 98066A   14264.50084057  .00005776  00000-0  36918-3 0  3759
2 25527 085.5248 259.6955 0013011 137.9055 340.5191 15.08360116866646
Epoch (UTC): 21 September 2014 12:01:12
Eccentricity: 0.0013011
inclination: 85.5248°
perigee height: 532 km
apogee height: 550 km
right ascension of ascending node: 259.6955°
argument of perigee: 137.9055°
revolutions per day: 15.08360116
mean anomaly at epoch: 340.5191°
orbit number at epoch: 86664

The dashed part of the orbit path shows where the satellite is in the earth's shadow,  

DLR